Zurück zum Katalog

OPS 4682 DEB

AktivPO
NORAD 38411·DEBRIS·🇺🇸 United States

Gestartet Apr 3, 1965 von Vandenberg Space Force Base

Loading…

Nächste Überflüge (nächste 24 Stunden)

TLE

AktuellSource: Space-Track

Epoche: Sep 14, 2026, 01:32 UTC

1 38411U 65027DQ  26257.06416071 -.00000198  00000-0 -70905-3 0  9998
2 38411  90.2602  18.1664 0039394 214.4984 145.3578 12.96933453674391

Verfolge OPS 4682 DEB in Echtzeit mit AllMySat

Download on the App Store